Location: Lake Crest
(37.6062°N, 88.9176°W)
Time: 04:35:50
(UTC+00:00)

Meteor 1-12 Rocket - Pass Details

Date: 15 December 2019
Orbit: 854 x 927 km, 81.2° (Epoch: 23 January)

Event Time Altitude Azimuth Distance (km) Brightness Sun altitude
Rises 00:22:26 0° 354° (N) 3,517 7.3 -20.0°
Reaches altitude 10° 00:24:57 10° 357° (N) 2,562 6.6 -20.5°
Maximum altitude 00:30:44 66° 80° (E) 951 4.2 -21.6°
Drops below altitude 10° 00:36:23 10° 162° (SSE) 2,500 6.6 -22.7°
Sets 00:38:48 0° 165° (SSE) 3,425 7.3 -23.2°
